Regional Weather Roundup
Issued by NWS Kansas City/Pleasant Hill, MO

Home | Current Version | Previous Version | Graphics & Text | Print | Product List | Glossary Off
Versions: 1 2 3 4 5 6 7 8 9 10 11 12 13 14 15 16 17 18 19 20 21 22 23 24 25 26 27 28 29 30 31 32 33 34 35 36 37 38 39 40 41 42 43 44 45 46 47 48 49 50

000
ASUS43 KEAX 300010
RWREAX

WEATHER ROUNDUP FOR EASTERN KANSAS AND NORTHWEST MISSOURI
NATIONAL WEATHER SERVICE KANSAS CITY/PLEASANT HILL MO
700 PM CDT FRI MAY 29 2015

KSZ040-057-103>105-MOZ028-029-037-043-300100-
...KANSAS CITY METROPOLITAN AREA...

CITY           SKY/WX    TMP DP  RH WIND       PRES   REMARKS
K.C. INTL      CLOUDY    69  66  90 S8        29.94F
6HR MIN TEMP:  67; 6HR MAX TEMP:  70; 6HR PCP:  0.07;

K.C. DOWNTOWN  CLOUDY    71  63  75 S12       29.94F
6HR MIN TEMP:  69; 6HR MAX TEMP:  72; 6HR PCP:  0.01;

LEES SUMMIT    CLOUDY    69  65  86 SW7       29.96F
6HR MIN TEMP:  67; 6HR MAX TEMP:  69; 6HR PCP:  0.20;

OLATHE - IXD   CLOUDY    68  65  90 S8        29.96F
6HR MIN TEMP:  67; 6HR MAX TEMP:  69; 6HR PCP:  0.09;

OLATHE - OJC   CLOUDY    69  65  86 S7        29.95F
6HR MIN TEMP:  67; 6HR MAX TEMP:  69; 6HR PCP:  0.08;

LAWRENCE       PTSUNNY   71  65  81 S7        29.94S

$$

MOZ001>008-011>017-020>025-030>033-038>040-044>046-053-054-300100-
...NORTHERN AND CENTRAL MISSOURI...

CITY           SKY/WX    TMP DP  RH WIND       PRES   REMARKS
ST. JOSEPH     PTSUNNY   71  65  81 SW7       29.93F
6HR MIN TEMP:  67; 6HR MAX TEMP:  72; 6HR PCP:  0.06;

MOSBY          CLOUDY    70  66  88 S7        29.95F
HARRISONVILLE  CLOUDY    68  66  94 CALM      29.98F
WARRENSBURG    DRIZZLE   68  64  88 CALM      29.95F
WHITEMAN AFB   LGT RAIN  68  66  94 VRB3      29.95F
6HR MIN TEMP:  68; 6HR MAX TEMP:  73; 6HR PCP:  0.09;

CLINTON        LGT RAIN  70  68  94 E6        29.96F
SEDALIA        LGT RAIN  71  67  87 S5        29.98S
6HR MIN TEMP:  70; 6HR MAX TEMP:  74; 6HR PCP:  0.04;

WARSAW         RAIN      68  68 100 CALM      29.98S
CHILLICOTHE      N/A     70  65  84 SW5       29.96S
6HR MIN TEMP:  70; 6HR MAX TEMP:  72; 6HR PCP:  0.02;

MOBERLY        RAIN      72  64  78 S7        29.97S
KIRKSVILLE     CLOUDY    71  67  87 S7        29.96R
6HR MIN TEMP:  71; 6HR MAX TEMP:  75; 6HR PCP: TRACE;


$$

MOZ041-047>049-056>058-063>065-088>090-097-300100-
...EASTERN AND SOUTHERN MISSOURI...

CITY           SKY/WX    TMP DP  RH WIND       PRES   REMARKS
ST. LOUIS INTL PTSUNNY   79  69  71 S8        29.98R
6HR MIN TEMP:  79; 6HR MAX TEMP:  86; 6HR PCP: TRACE;

SPIRIT OF STL  PTSUNNY   78  69  73 SW3       29.96R
COLUMBIA       LGT RAIN  71  66  84 SE3       29.98S
JEFFERSON CITY LGT RAIN  70  65  84 CALM      29.97S
MEXICO         PTSUNNY   75  70  83 S3        29.97S
ROLLA          CLOUDY    72  67  84 N6        29.96F
LEBANON        TSTM      70  68  94 NE8       29.98R
OSAGE BEACH    CLOUDY    70  66  88 NE6       29.97S
SPRINGFIELD    TSTM      67  65  93 SW12      29.96R FOG
BRANSON        LGT RAIN  72  70  94 CALM      29.95S
NEVADA         LGT RAIN  66  64  94 E5        29.95F
JOPLIN         LGT RAIN  65  63  93 E8        29.94F
WEST PLAINS    TSTM      73  66  78 SE13G20   29.97R
MALDEN         PTSUNNY   82  70  65 SE14      29.97F

$$

IAZ060-094-KSZ022-034>040-054-083-096-NEZ052-066-093-300100-
...KANSAS...SOUTHEAST NEBRASKA AND IOWA...

CITY           SKY/WX    TMP DP  RH WIND       PRES   REMARKS
TOPEKA         PTSUNNY   72  66  81 S8        29.92F
6HR MIN TEMP:  69; 6HR MAX TEMP:  73; 6HR PCP:  0.02;

MANHATTAN      CLOUDY    77  66  68 SW3       29.90F
EMPORIA        CLOUDY    71  65  81 SE6       29.93F
CHANUTE        CLOUDY    69  66  90 E5        29.94S
WICHITA        PTSUNNY   77  62  59 S5        29.93S
OMAHA          CLOUDY    77  61  57 S8        29.87S
LINCOLN        PTSUNNY   75  59  57 N23G31    29.92R
FALLS CITY     PTSUNNY   74  66  76 S8        29.90F
LAMONI         CLOUDY    73  63  70 SW12      29.93S
DES MOINES     CLOUDY    74  64  71 W14       29.88S

$$




USA.gov is the U.S. government's official web portal to all federal, state and local government web resources and services.